Weather History for Penn Yan, NY

Change the Weather History Date:

Wednesday, February 6, 2013

  Actual Average (KITH) Record (KITH)
Temperature  
Mean Temperature 20 °F -  
Max Temperature 27 °F 28 °F 56 °F (1991)
Min Temperature 10 °F 9 °F -11 °F (1948)
Degree Days  
Heating Degree Days 46    
Moisture  
Dew Point 15 °F    
Average Humidity 69    
Maximum Humidity 88    
Minimum Humidity 41    
Precipitation  
Precipitation 0.00 in - - ()
Sea Level Pressure  
Sea Level Pressure 30.12 in    
Wind  
Wind Speed 8 mph (West)    
Max Wind Speed 17 mph    
Max Gust Speed 23 mph    
Visibility 7 miles    
Events Snow    
Averages and records for this station are not official NWS values.
T = Trace of Precipitation, MM = Missing Value Source: NWS Daily Summary

Daily Weather History Graph

Daily Weather History Graph

Search for Another Location

Airport:

Trip Planner

Search our weather history database for the weather conditions in past years. The results will help you decide how hot, cold, wet, or windy it might be!

Date:

Astronomy

Feb. 06, 2013 Rise Set
Actual Time 7:16 AM EST 5:28 PM EST
Civil Twilight 6:47 AM EST 5:58 PM EST
Nautical Twilight 6:13 AM EST 6:31 PM EST
Astronomical Twilight 5:40 AM EST 7:04 PM EST
Moon 4:00 AM EST (2/6) 1:42 PM EST (2/6)
Length of Visible Light 11h 11m
Length of Day
10h 12m
Waning Crescent, 17% of the Moon is Illuminated
Feb 6
Waning Crescent
Feb 10
New
Feb 17
First Quarter
Feb 25
Full
Mar 4
Last Quarter

Hourly Weather History & Observations

Time (EST) Temp. Windchill Dew Point Humidity Pressure Visibility Wind Dir Wind Speed Gust Speed Precip Events Conditions
12:53 AM 26.1 °F 18.4 °F 17.1 °F 69% 29.90 in 10.0 mi SW 6.9 mph - N/A   Mostly Cloudy
2:05 AM 26.6 °F 21.2 °F 17.6 °F 69% 29.86 in 10.0 mi SW 4.6 mph - N/A   Overcast
2:53 AM 27.0 °F 17.3 °F 18.0 °F 69% 29.91 in 10.0 mi WSW 10.4 mph 16.1 mph N/A   Overcast
3:53 AM 27.0 °F 16.7 °F 19.0 °F 72% 29.93 in 10.0 mi SW 11.5 mph - N/A   Overcast
4:53 AM 27.0 °F 18.7 °F 19.9 °F 75% 29.95 in 10.0 mi WSW 8.1 mph - N/A   Overcast
5:38 AM 26.6 °F 18.2 °F 21.2 °F 80% 29.93 in 2.0 mi SW 8.1 mph - 0.00 in Snow Light Snow
5:49 AM 26.6 °F 20.0 °F 21.2 °F 80% 29.94 in 3.0 mi SW 5.8 mph - 0.00 in Snow Light Snow
5:53 AM 27.0 °F 21.6 °F 21.9 °F 81% 29.98 in 3.0 mi SW 4.6 mph - 0.00 in Snow Light Snow
6:13 AM 26.6 °F 21.2 °F 21.2 °F 80% 29.95 in 2.5 mi SW 4.6 mph - 0.00 in Snow Light Snow
6:20 AM 26.6 °F 20.0 °F 21.2 °F 80% 29.95 in 2.0 mi SW 5.8 mph - 0.00 in Snow Light Snow
6:53 AM 26.1 °F 20.5 °F 23.0 °F 88% 30.01 in 2.0 mi SSW 4.6 mph - 0.00 in Snow Light Snow
7:25 AM 26.6 °F 21.2 °F 21.2 °F 80% 29.99 in 3.0 mi Variable 4.6 mph - 0.00 in Snow Light Snow
7:39 AM 26.6 °F 19.1 °F 19.4 °F 74% 30.00 in 9.0 mi Variable 6.9 mph - 0.00 in   Overcast
7:53 AM 27.0 °F 16.7 °F 18.0 °F 69% 30.05 in 10.0 mi West 11.5 mph - 0.00 in   Overcast
8:53 AM 27.0 °F 17.3 °F 15.1 °F 61% 30.09 in 10.0 mi West 10.4 mph 16.1 mph N/A   Overcast
9:53 AM 26.1 °F 15.0 °F 18.0 °F 71% 30.13 in 3.0 mi NW 12.7 mph 17.3 mph 0.00 in Snow Light Snow
9:55 AM 26.6 °F 15.2 °F 19.4 °F 74% 30.09 in 1.5 mi NW 13.8 mph 19.6 mph 0.00 in Snow Light Snow
10:04 AM 24.8 °F 12.9 °F 19.4 °F 80% 30.10 in 0.5 mi NW 13.8 mph - 0.00 in Snow Snow
10:12 AM 24.8 °F 14.0 °F 19.4 °F 80% 30.11 in 0.5 mi NW 11.5 mph 19.6 mph 0.00 in Snow Snow
10:40 AM 24.8 °F 14.6 °F 19.4 °F 80% 30.11 in 2.0 mi NW 10.4 mph - 0.00 in Snow Light Snow
10:43 AM 24.8 °F 16.9 °F 17.6 °F 74% 30.12 in 3.0 mi Variable 6.9 mph 18.4 mph 0.00 in Snow Light Snow
10:53 AM 25.0 °F 16.3 °F 18.0 °F 75% 30.17 in 2.0 mi WNW 8.1 mph 16.1 mph 0.00 in Snow Light Snow
10:58 AM 24.8 °F 15.3 °F 17.6 °F 74% 30.13 in 1.8 mi WNW 9.2 mph - 0.00 in Snow Light Snow
11:08 AM 24.8 °F 14.0 °F 17.6 °F 74% 30.13 in 2.5 mi WNW 11.5 mph 20.7 mph 0.00 in Snow Light Snow
11:27 AM 26.6 °F 14.7 °F 15.8 °F 64% 30.14 in 5.0 mi NW 15.0 mph 19.6 mph 0.00 in Snow Light Snow
11:53 AM 27.0 °F 16.1 °F 16.0 °F 63% 30.19 in 10.0 mi NW 12.7 mph 20.7 mph 0.00 in   Overcast
12:32 PM 26.6 °F 13.8 °F 12.2 °F 55% 30.16 in 10.0 mi West 17.3 mph 23.0 mph 0.00 in   Overcast
12:53 PM 26.1 °F 15.6 °F 12.0 °F 55% 30.21 in 10.0 mi West 11.5 mph 19.6 mph 0.00 in   Mostly Cloudy
1:53 PM 27.0 °F 17.3 °F 9.0 °F 47% 30.22 in 10.0 mi WNW 10.4 mph - N/A   Scattered Clouds
2:53 PM 27.0 °F 17.3 °F 6.1 °F 41% 30.24 in 10.0 mi WNW 10.4 mph - N/A   Clear
3:53 PM 27.0 °F 18.7 °F 6.1 °F 41% 30.27 in 10.0 mi NW 8.1 mph - N/A   Clear
4:53 PM 26.1 °F 19.4 °F 6.1 °F 43% 30.28 in 10.0 mi WNW 5.8 mph - N/A   Clear
5:53 PM 23.0 °F 15.8 °F 7.0 °F 50% 30.31 in 10.0 mi NW 5.8 mph - N/A   Clear
6:53 PM 21.0 °F - 10.0 °F 63% 30.34 in 10.0 mi Calm Calm - N/A   Clear
7:53 PM 17.1 °F 8.7 °F 9.0 °F 71% 30.37 in 10.0 mi NNW 5.8 mph - N/A   Clear
8:53 PM 18.0 °F - 7.0 °F 62% 30.38 in 10.0 mi Calm Calm - N/A   Clear
9:53 PM 14.0 °F - 7.0 °F 74% 30.40 in 10.0 mi Calm Calm - N/A   Clear
10:53 PM 12.0 °F - 6.1 °F 77% 30.40 in 10.0 mi Calm Calm - N/A   Clear
11:53 PM 10.9 °F - 7.0 °F 84% 30.40 in 10.0 mi Calm Calm - N/A   Clear